Flag for U.S.A. Weather past 2 weeks in Memphis, Tennessee, U.S.A.

Now
67 °F

Clear.


Feels Like: 67 °F
Forecast: 57 / 81 °F
Wind: 7 mph from Northeast

Location: Memphis International Airport

Current Time: Sep 24, 2014 at 12:35:45 AM

Latest Report: Sep 23, 2014 at 11:54 PM


Visibility: 10 mi

Pressure: 30.17 "Hg

Humidity: 53%

Dew point: 49 °F

Location of MemphisLocation

Historic Weather in Memphis — Graph

°F

Memphis temperature yesterday

Maximum temperature yesterday: 81 °F (at 3:54 PM)
Minimum temperature yesterday: 55 °F (at 6:54 AM)
Average temperature yesterday: 68 °F

Past Weeks' High & Low Weather Summary

 TemperatureHumidityPressure
High93 °F (Sep 10, 3:54 PM)94% (Sep 11, 7:04 AM)30.27 "Hg (Sep 11, 7:04 AM)
Low55 °F (Sep 23, 6:54 AM)25% (Sep 23, 2:54 PM)29.81 "Hg (Sep 10, 5:54 PM)
Average73 °F68%30.06 "Hg
* Reported Sep 8 10:54 PM — Sep 23 10:54 PM, Memphis, Weather by CustomWeather, © 2014

Note: Actual official high and low records may vary slightly from our data, if they occured in-between our weather recording intervals... More about our weather records

Advertising

Memphis weather history for previous 24 hours

 ConditionsComfort  
Time TempWeatherWind HumidityBarometerVisibility
10:54 PM
Sep 23
67 °FClear.3 mph53%30.18 "Hg10 mi
9:54 PM67 °FClear.6 mph55%30.16 "Hg10 mi
8:54 PM69 °FPassing clouds.7 mph49%30.16 "Hg10 mi
7:54 PM71 °FPassing clouds.7 mph44%30.15 "Hg10 mi
6:54 PM74 °FScattered clouds.8 mph37%30.15 "Hg10 mi
5:54 PM78 °FScattered clouds.12 mph29%30.14 "Hg10 mi
4:54 PM80 °FScattered clouds.12 mph28%30.14 "Hg10 mi
3:54 PM81 °FScattered clouds.10 mph26%30.16 "Hg10 mi
2:54 PM80 °FScattered clouds.13 mph25%30.17 "Hg10 mi
1:54 PM79 °FPassing clouds.9 mph28%30.20 "Hg10 mi
12:54 PM77 °FPassing clouds.10 mph35%30.22 "Hg10 mi
11:54 AM75 °FPassing clouds.7 mph34%30.23 "Hg10 mi
10:54 AM71 °FPassing clouds.12 mph39%30.24 "Hg10 mi
9:54 AM67 °FPassing clouds.8 mph49%30.24 "Hg10 mi
8:54 AM63 °FPassing clouds.8 mph56%30.24 "Hg10 mi
7:54 AM58 °FPassing clouds.6 mph67%30.23 "Hg10 mi
6:54 AM55 °FPassing clouds.3 mph72%30.22 "Hg10 mi
5:54 AM56 °FClear.5 mph72%30.21 "Hg10 mi
4:54 AM58 °FClear.5 mph67%30.21 "Hg10 mi
3:54 AM60 °FClear.8 mph62%30.20 "Hg10 mi
2:54 AM60 °FClear.7 mph62%30.19 "Hg10 mi
1:54 AM61 °FClear.7 mph60%30.20 "Hg10 mi
12:54 AM62 °FClear.7 mph58%30.20 "Hg10 mi
Weather by CustomWeather, © 2014

See weather overviewHow to use our weather pages